Regional Weather Roundup
Issued by NWS

Home | Current Version | Previous Version | Text Only | Print | Product List | Glossary On
Versions: 1 2 3 4 5 6 7 8 9 10 11 12 13 14 15 16 17 18 19 20 21 22 23 24 25 26 27 28 29 30 31 32 33 34 35 36 37 38 39 40 41 42 43 44 45 46 47 48 49 50
000
ASUS43 KLOT 031921
RWRIL

ILLINOIS REGIONAL WEATHER ROUNDUP
NATIONAL WEATHER SERVICE CHICAGO/ROMEOVILLE IL
200 PM CDT MON AUG 03 2015

NOTE: "FAIR" INDICATES FEW OR NO CLOUDS BELOW 12,000 FEET WITH NO
SIGNIFICANT WEATHER AND/OR OBSTRUCTIONS TO VISIBILITY.

* THESE STATIONS ARE NOT UNDER NWS QUALITY CONTROL. THEY ALSO MAY NOT
  REPORT WEATHER SUCH AS PRECIPITATION OR FOG.

ILZ001-002-007-009-015-016-024-032000-
NORTHWEST ILLINOIS

CITY           SKY/WX    TMP DP  RH WIND       PRES   REMARKS
MOLINE         SUNNY     82  53  36 NW8       29.91F HX  81
STERLING*      SUNNY     81  54  39 W10       29.87F HX  80
SAVANNA*       SUNNY     81  45  28 NW7G18    29.90F HX  80
$$

ILZ003-004-008-010-011-017-018-032000-
NORTH CENTRAL ILLINOIS

CITY           SKY/WX    TMP DP  RH WIND       PRES   REMARKS
ROCKFORD       MOSUNNY   81  50  33 NW9G20    29.89F HX  80
FREEPORT*      SUNNY     78  51  38 NW9       29.91F
ROCHELLE*      SUNNY     78  51  39 NW12G17   29.90F
DE KALB*       SUNNY     78  50  37 NW14      29.90S
PERU*          SUNNY     80  47  31 NW9       29.91S
$$

ILZ005-006-012>014-019>023-032000-
NORTHEAST ILLINOIS

CITY           SKY/WX    TMP DP  RH WIND       PRES   REMARKS
CHICAGO-OHARE  MOSUNNY   80  48  32 NW13      29.86S
CHICAGO-MIDWAY MOSUNNY   83  49  30 NW15      29.85F HX  81
AURORA         SUNNY     80  51  36 NW10      29.89S HX  80
LANSING*       SUNNY     82  52  35 W9        29.86S HX  81
JOLIET*        SUNNY     82  56  41 NW8       29.87F HX  81
WAUKEGAN       SUNNY     78  49  35 W10       29.85S
DUPAGE AIRPORT SUNNY     79  48  33 W12G18    29.87F
KANKAKEE*      MOSUNNY   83  61  47 NW10G20   29.87S HX  83
WHEELING       SUNNY     81  45  28 W13       29.87  HX  80
MORRIS*        SUNNY     80  53  39 NW8G18    29.87F HX  80
ROMEOVILLE*    SUNNY     80  55  43 NW13      29.87F HX  80
NORTHERLY ISL    N/A     79  45  29 W10         N/A
$$

LMZ740>746-032000-
SOUTHERN LAKE MICHIGAN

STATION/POSITION SKY/WX   TEMP    WIND        PRES    VSBY  WAVE
                          AIR SEA DIR/SP/G                  HT/PER
                          (F)     (DEG/KT/KT) (MB)    (MI)  (FT/S)
HARRISON CRIB              77     320/ 14/ 16   N/A
BURNHAM HARBOR             80     270/  6/ 14   N/A
CALUMET HARBOR             75      20/  9/ 13   N/A
BURNS HARBOR               72      30/  7/  9 1011.9S
MICHIGAN CITY              74     350/  5/  6   N/A
MICHIGAN CITY 6N           72 74   10/  4/  6   N/A           3/ 4
ST. JOSEPH                 71 73  340/  8/  8   N/A           3/ 4
$$

ILZ025>027-034>036-040-047-049-050-058-095>099-032000-
WEST-CENTRAL ILLINOIS

CITY           SKY/WX    TMP DP  RH WIND       PRES   REMARKS
QUINCY         MOSUNNY   82  63  52 W7        29.94R HX  83
GALESBURG*     SUNNY     80  59  49 MISG      29.93S HX  80
MACOMB*        SUNNY     81  58  45 N6        29.95F HX  81
JACKSONVILLE*  MOSUNNY   84  65  51 NW6       29.92R HX  86
PITTSFIELD*    PTSUNNY   84  65  52 W7        29.95R HX  86
$$

ILZ028>032-037-038-041>044-048-051>054-059>061-032000-
CENTRAL ILLINOIS

CITY           SKY/WX    TMP DP  RH WIND       PRES   REMARKS
PONTIAC        SUNNY     81  63  55 W10G16    29.90S HX  82
BLOOMINGTON    MOSUNNY   82  65  56 NW10      29.92R HX  84
DECATUR        PTSUNNY   86  64  47 W15G21    29.90R HX  87
PEORIA         SUNNY     83  59  44 N7        29.91S HX  83
LACON*         SUNNY     79  57  47 W8        29.90S HX  80
LINCOLN*       MOSUNNY   85  63  46 NW6       29.90R HX  86
SPRINGFIELD    MOSUNNY   86  68  54 W8        29.91S HX  89
TAYLORVILLE    MOSUNNY   82  68  61 W8        29.91R HX  85
$$

ILZ033-039-045-046-055>057-062-063-032000-
EAST-CENTRAL ILLINOIS

CITY           SKY/WX    TMP DP  RH WIND       PRES   REMARKS
CHAMPAIGN      MOSUNNY   85  67  54 W12       29.89R HX  87
DANVILLE*      MOSUNNY   85  69  58 W9        29.85S HX  89
RANTOUL*       MOSUNNY   87  67  52 W9        29.88S HX  90
MATTOON        MOSUNNY   89  62  40 NW15      29.88S HX  89
PARIS*         MOSUNNY   86  69  55 W14G21    29.88S HX  90
$$

ILZ079-100>102-032000-
SOUTHWEST ILLINOIS

CITY           SKY/WX    TMP DP  RH WIND       PRES   REMARKS
ALTON          MOSUNNY   88  68  51 W9        29.91S HX  91
BELLEVILLE     SUNNY     92  68  45 NW8       29.89S HX  95
CAHOKIA*       SUNNY     94  64  37 NW10      29.90S HX  95
SPARTA*        SUNNY     90  69  50 W8        29.92S HX  94
$$

ILZ064>066-069>071-074>076-080>082-084>086-088>090-092>094-032000-
SOUTH-CENTRAL ILLINOIS

CITY           SKY/WX    TMP DP  RH WIND       PRES   REMARKS
CARBONDALE     SUNNY     90  72  55 W8        29.90S HX  97
CAIRO*         SUNNY     90  72  55 W7        29.90S HX  97
EFFINGHAM*     SUNNY     90  62  38 W10       29.90S HX  90
MARION         MOSUNNY   91  73  55 W15       29.91S HX 100
MT. VERNON     MOSUNNY   91  66  43 W6        29.90S HX  94
CENTRALIA*     SUNNY     90  62  39 W9G17     29.90S HX  91
SALEM*         SUNNY     91  65  41 W9        29.90S HX  93
METROPOLIS*    SUNNY     91  74  57 SW7       29.91F HX 101
$$

ILZ067-068-072-073-078-083-087-091-032000-
SOUTHEAST ILLINOIS

CITY           SKY/WX    TMP DP  RH WIND       PRES   REMARKS
LAWRENCEVILLE  SUNNY     92  67  43 W15       29.87S HX  95
FLORA*         SUNNY     90  64  42 NW13G21   29.89S HX  91
FAIRFIELD*     MOSUNNY   90  67  47 W5        29.87S HX  93
HARRISBURG*    SUNNY     92  71  49 W12       29.90S HX  99
ROBINSON*      SUNNY     88  68  51 NW9       29.87F HX  92
CARMI*         MOSUNNY   90  66  45 W9        29.88S HX  92
$$

ABBREVIATIONS USED IN REMARKS
   TC - TEMPERATURE IN CELSIUS
  WCI - WIND CHILL INDEX
   HX - HEAT INDEX
  VSB - VISIBILITY
$$




USA.gov is the U.S. government's official web portal to all federal, state and local government web resources and services.